Date String (YYYY-MM-DD hh:mm:ss) UTC,Instrument flags,absolute air pressure of the measurement (hPa),sample flow rate (lpm),inlet stack bypass flow (lpm),air temperature of the measurement (°C),ambient temperature measured by the external sensor (°C),aerosol sample conditioner tube jacket temperature (°C),OPC LED temperature (°C),internal box temperature (°C),relative humidity of the measurement (%),span deviation,mass concentration of particles derived from Lorenz-Mie calculation of OPC scattering (μg/m³),mass concentration of particles derived from Lorenz-Mie calculation of OPC scattering (μg/m³),mass concentration of particles derived from Lorenz-Mie calculation of OPC scattering (μg/m³)
DateTimeUTC,F1_M11,P_M11,Q1_M11,Q2_M11,T1_M11,T2_M11,T3_M11,T4_M11,T5_M11,U1_M11,ZSPAN_M11,X0_M11,X2_M11,X1_M11
2024-03-12 01:00:00,SystemResetWarning,0824.1,5.00,000.00,023.9,023.1,000.0,032.3,025.7,08.0,0000.0,0017.50,0004.49,0002.18
2024-03-12 01:01:00,SystemResetWarning,0824.2,5.01,000.00,023.9,023.2,000.0,032.3,025.7,07.9,0000.0,0016.53,0004.44,0002.18
2024-03-12 01:02:00,SystemResetWarning,0824.2,5.00,000.00,023.9,023.2,000.0,032.3,025.7,07.9,0000.0,0016.19,0004.52,0002.21
2024-03-12 01:03:00,SystemResetWarning,0824.2,4.99,000.00,023.9,023.2,000.0,032.3,025.7,08.1,0000.0,0016.15,0004.57,0002.22
2024-03-12 01:04:00,SystemResetWarning,0824.2,4.99,000.00,023.9,023.2,000.0,032.3,025.7,08.3,0000.0,0015.54,0004.61,0002.22
2024-03-12 01:05:00,SystemResetWarning,0824.2,5.00,000.00,023.9,023.2,000.0,032.3,025.7,08.3,0000.0,0016.12,0004.65,0002.22
2024-03-12 01:06:00,SystemResetWarning,0824.2,5.01,000.00,023.9,023.2,000.0,032.3,025.7,08.4,0000.0,0016.62,0004.73,0002.22
2024-03-12 01:07:00,SystemResetWarning,0824.2,5.01,000.00,023.9,023.2,000.0,032.3,025.7,08.6,0000.0,0017.81,0004.71,0002.22
2024-03-12 01:08:00,SystemResetWarning,0824.2,5.00,000.00,023.9,023.2,000.0,032.4,025.7,08.8,0000.0,0017.85,0004.72,0002.25
2024-03-12 01:09:00,SystemResetWarning,0824.1,5.00,000.00,023.9,023.2,000.0,032.4,025.7,08.6,0000.0,0018.08,0004.74,0002.26
2024-03-12 01:10:00,SystemResetWarning,0824.0,4.99,000.00,023.9,023.2,000.0,032.4,025.7,08.8,0000.0,0018.93,0004.78,0002.29
2024-03-12 01:11:00,SystemResetWarning,0824.0,5.00,000.00,023.9,023.2,000.0,032.4,025.7,09.0,0000.0,0019.17,0004.72,0002.31
2024-03-12 01:12:00,SystemResetWarning,0824.0,5.00,000.00,023.9,023.2,000.0,032.4,025.7,08.4,0000.0,0018.76,0004.72,0002.30
2024-03-12 01:13:00,SystemResetWarning,0824.0,5.00,000.00,023.9,023.2,000.0,032.4,025.7,08.4,0000.0,0018.24,0004.63,0002.28
2024-03-12 01:14:00,SystemResetWarning,0824.0,5.00,000.00,023.9,023.2,000.0,032.4,025.7,08.5,0000.0,0018.02,0004.54,0002.28
2024-03-12 01:15:00,SystemResetWarning,0824.0,5.00,000.00,023.9,023.2,000.0,032.4,025.7,08.7,0000.0,0018.88,0004.54,0002.30
2024-03-12 01:16:00,SystemResetWarning,0824.0,5.00,000.00,023.9,023.2,000.0,032.4,025.7,08.5,0000.0,0019.09,0004.55,0002.32
2024-03-12 01:17:00,SystemResetWarning,0823.9,5.01,000.00,023.9,023.2,000.0,032.4,025.7,07.9,0000.0,0020.79,0004.56,0002.32
2024-03-12 01:18:00,SystemResetWarning,0824.0,5.01,000.00,023.9,023.2,000.0,032.4,025.7,07.8,0000.0,0019.70,0004.60,0002.33
2024-03-12 01:19:00,SystemResetWarning,0824.0,5.00,000.00,023.9,023.2,000.0,032.4,025.7,07.7,0000.0,0018.92,0004.61,0002.37
2024-03-12 01:20:00,SystemResetWarning,0824.0,4.99,000.00,023.9,023.2,000.0,032.4,025.7,07.6,0000.0,0018.60,0004.59,0002.39
2024-03-12 01:21:00,SystemResetWarning,0824.0,4.99,000.00,023.9,023.2,000.0,032.4,025.7,07.6,0000.0,0018.28,0004.60,0002.40
2024-03-12 01:22:00,SystemResetWarning,0824.0,5.00,000.00,023.9,023.2,000.0,032.4,025.7,07.5,0000.0,0017.54,0004.62,0002.43
2024-03-12 01:23:00,SystemResetWarning,0824.0,5.01,000.00,023.9,023.2,000.0,032.4,025.7,07.4,0000.0,0018.61,0004.64,0002.48
2024-03-12 01:24:00,SystemResetWarning,0823.9,5.00,000.00,023.9,023.2,000.0,032.4,025.7,07.2,0000.0,0020.04,0004.76,0002.55
2024-03-12 01:25:00,SystemResetWarning,0823.9,5.01,000.00,023.9,023.2,000.0,032.4,025.7,07.2,0000.0,0020.76,0004.84,0002.60
2024-03-12 01:26:00,SystemResetWarning,0823.8,5.00,000.00,023.9,023.2,000.0,032.4,025.7,07.2,0000.0,0020.97,0004.88,0002.66
2024-03-12 01:27:00,SystemResetWarning,0823.8,5.00,000.00,023.9,023.2,000.0,032.4,025.7,07.1,0000.0,0020.01,0004.89,0002.69
2024-03-12 01:28:00,SystemResetWarning,0823.8,4.99,000.00,023.9,023.2,000.0,032.4,025.7,07.2,0000.0,0018.67,0004.96,0002.75
2024-03-12 01:29:00,SystemResetWarning,0823.8,4.99,000.00,023.9,023.2,000.0,032.4,025.7,07.4,0000.0,0018.70,0004.95,0002.78
2024-03-12 01:30:00,SystemResetWarning,0823.8,4.99,000.00,023.9,023.2,000.0,032.4,025.7,07.4,0000.0,0020.09,0004.89,0002.76
2024-03-12 01:31:00,SystemResetWarning,0823.8,5.01,000.00,023.9,023.1,000.0,032.4,025.7,07.5,0000.0,0021.00,0004.90,0002.74
2024-03-12 01:32:00,SystemResetWarning,0823.8,5.00,000.00,023.9,023.1,000.0,032.4,025.7,07.7,0000.0,0020.97,0004.91,0002.73
2024-03-12 01:33:00,SystemResetWarning,0823.8,5.01,000.00,023.9,023.1,000.0,032.4,025.7,07.9,0000.0,0022.22,0004.98,0002.72
2024-03-12 01:34:00,SystemResetWarning,0823.8,5.01,000.00,023.9,023.1,000.0,032.4,025.7,08.1,0000.0,0023.49,0005.09,0002.69
2024-03-12 01:35:00,SystemResetWarning,0823.8,5.00,000.00,023.9,023.2,000.0,032.4,025.7,08.1,0000.0,0022.40,0005.08,0002.65
2024-03-12 01:36:00,SystemResetWarning,0823.8,5.00,000.00,023.9,023.1,000.0,032.4,025.7,08.0,0000.0,0022.08,0005.05,0002.61
2024-03-12 01:37:00,SystemResetWarning,0823.8,5.00,000.00,023.9,023.2,000.0,032.4,025.7,08.0,0000.0,0022.94,0005.12,0002.57
2024-03-12 01:38:00,SystemResetWarning,0823.8,5.00,000.00,023.9,023.1,000.0,032.4,025.7,07.9,0000.0,0023.64,0005.12,0002.54
2024-03-12 01:39:00,SystemResetWarning,0823.8,4.99,000.00,023.9,023.1,000.0,032.4,025.7,07.9,0000.0,0024.49,0005.06,0002.47
2024-03-12 01:40:00,SystemResetWarning,0823.8,5.00,000.00,023.9,023.1,000.0,032.4,025.7,07.9,0000.0,0024.38,0005.03,0002.43
2024-03-12 01:41:00,SystemResetWarning,0823.8,5.00,000.00,023.9,023.1,000.0,032.4,025.7,08.3,0000.0,0024.46,0005.01,0002.40
2024-03-12 01:42:00,SystemResetWarning,0823.8,4.99,000.00,023.9,023.1,000.0,032.4,025.6,09.0,0000.0,0024.11,0004.97,0002.39
2024-03-12 01:43:00,SystemResetWarning,0823.8,5.00,000.00,023.9,023.1,000.0,032.4,025.6,09.1,0000.0,0023.73,0004.88,0002.37
2024-03-12 01:44:00,SystemResetWarning,0823.8,5.00,000.00,023.9,023.1,000.0,032.4,025.6,09.4,0000.0,0022.04,0004.77,0002.33
2024-03-12 01:45:00,SystemResetWarning,0823.8,5.01,000.00,023.9,023.1,000.0,032.4,025.6,09.2,0000.0,0020.41,0004.69,0002.30
2024-03-12 01:46:00,SystemResetWarning,0823.8,5.00,000.00,023.9,023.1,000.0,032.4,025.6,09.0,0000.0,0020.62,0004.68,0002.27
2024-03-12 01:47:00,SystemResetWarning,0823.9,5.01,000.00,023.9,023.1,000.0,032.4,025.6,09.1,0000.0,0020.35,0004.69,0002.26
2024-03-12 01:48:00,SystemResetWarning,0823.8,4.99,000.00,023.8,023.1,000.0,032.4,025.6,09.1,0000.0,0018.30,0004.61,0002.22
2024-03-12 01:49:00,SystemResetWarning,0823.9,4.99,000.00,023.8,023.1,000.0,032.4,025.6,09.1,0000.0,0018.48,0004.59,0002.21
2024-03-12 01:50:00,SystemResetWarning,0823.9,5.01,000.00,023.8,023.1,000.0,032.4,025.6,08.8,0000.0,0017.36,0004.59,0002.21
2024-03-12 01:51:00,SystemResetWarning,0823.9,5.01,000.00,023.8,023.1,000.0,032.4,025.6,08.5,0000.0,0017.33,0004.60,0002.19
2024-03-12 01:52:00,SystemResetWarning,0823.9,5.00,000.00,023.8,023.1,000.0,032.4,025.6,08.5,0000.0,0016.16,0004.60,0002.22
2024-03-12 01:53:00,SystemResetWarning,0823.9,5.00,000.00,023.8,023.1,000.0,032.4,025.6,08.9,0000.0,0016.01,0004.64,0002.24
2024-03-12 01:54:00,SystemResetWarning,0823.9,5.00,000.00,023.8,023.0,000.0,032.4,025.6,09.0,0000.0,0016.31,0004.70,0002.24
2024-03-12 01:55:00,SystemResetWarning,0823.9,5.00,000.00,023.8,023.0,000.0,032.4,025.6,08.6,0000.0,0016.63,0004.70,0002.25
2024-03-12 01:56:00,SystemResetWarning,0823.9,4.99,000.00,023.8,023.0,000.0,032.4,025.6,08.5,0000.0,0017.92,0004.74,0002.27
2024-03-12 01:57:00,SystemResetWarning,0823.9,4.99,000.00,023.8,023.0,000.0,032.4,025.6,08.4,0000.0,0018.89,0004.73,0002.28
2024-03-12 01:58:00,SystemResetWarning,0823.9,5.00,000.00,023.8,023.0,000.0,032.4,025.6,08.5,0000.0,0019.07,0004.73,0002.29
2024-03-12 01:59:00,SystemResetWarning,0823.9,5.01,000.00,023.8,023.0,000.0,032.4,025.6,08.6,0000.0,0019.09,0004.71,0002.29
